www.pogodaiklimat.ru

Погода и климат >> Архив погоды >> Малайзия >> Kuala Lumpur Int Airport


ПОГОДА в Kuala Lumpur Int Airport

  • Прогноз погоды в Kuala Lumpur Int Airport
  • Монитор погоды в Kuala Lumpur Int Airport
  • Климат города

АРХИВ ПОГОДЫ в Kuala Lumpur Int Airport

Время (UTC), дата Ветер
(напр.,м/с)
 
Видим.   Явления Облачность Т
(С)
Тd
(С)
f
(%)
Тe
(С)
Тes
(С)
Комфортность P
(гПа)
Po
(гПа)
Тmin
(С)
Tmax
(С)
R
(мм)
R24
(мм)
S
(см)
00 13.09 СВ 2 8000 м в посл. час дождь 9/5 240 м
[Cb cap Ac lent Ci sp]
+23.4 +22.6 95 +32 +33 очень
душно
1011.1 1009.2 +22.8 34
03 13.09 СЗ 2 10 км мгла 9/1 540 м
[Cu med, cong Ac lent Ci sp]
+26.7 +22.8 79 +35 +44 очень
душно
1012.2 1010.3
06 13.09 Ю 2 10 км мгла 9/3 540 м
[Cu med, cong Ac lent Ci sp]
+30.3 +22.8 64 +40 +49 очень
душно
1009.8 1007.9
09 13.09 Ю 2 10 км мгла 9/3 540 м
[Cu med, cong Ac lent Ci sp]
+31.2 +22.2 59 +40 +43 очень
душно
1007.3 1005.4
12 13.09 ЮЗ 1 10 км мгла 9/1 900 м
[Sc Ac lent Ci sp]
+28.1 +23.3 75 +38 +38 очень
душно
1008.6 1006.7 +31.4
15 13.09 штиль 0 8000 м мгла 9/1 900 м
[Sc Ac lent Ci sp]
+27.1 +24.1 84 +38 +38 очень
душно
1010.3 1008.4
18 13.09 СВ 1 8000 м мгла 9/1 900 м
[Sc Ac lent Ci sp]
+26.1 +23.2 84 +35 +35 очень
душно
1009.6 1007.7
21 13.09 СВ 1 8000 м зарница 9/1 500 м
[Cb cap Ac lent Ci sp]
+25.2 +22.6 86 +33 +33 очень
душно
1008.3 1006.4
00 14.09 штиль 0 7000 м мгла 9/3 500 м
[Cb cap Ac lent Ci sp]
+25.5 +22.8 85 +34 +34 очень
душно
1009.7 1007.8 +23.5
03 14.09 З 2 6000 м мгла 9/1 500 м
[Cb cap Ac As Ci sp]
+28.3 +24.0 78 +39 +48 очень
душно
1011.1 1009.2
06 14.09 ЮВ 3 8000 м осадки на расстоянии 9/4 500 м
[Cb cap Ac lent Ci sp]
+29.8 +24.6 74 +42 +49 опасность
перегрева
1008.7 1006.8
09 14.09 СЗ 3 10 км осадки на расстоянии 9/3 500 м
[Cb cap Ac lent Ci sp]
+29.5 +25.0 77 +43 +45 опасность
перегрева
1007.4 1005.5
12 14.09 СВ 2 10 км мгла 9/1 900 м
[Sc Ac lent Ci sp]
+27.0 +23.8 83 +37 +37 очень
душно
1008.3 1006.4 +31.4
15 14.09 СВ 3 9000 м мгла 9/1 900 м
[Sc Ac lent Ci sp]
+26.4 +24.0 87 +37 +37 очень
душно
1010.9 1009.0
18 14.09 СЗ 1 8000 м зарница 9/3 500 м
[Cb cap Ac lent Ci sp]
+26.3 +24.2 88 +37 +37 очень
душно
1009.8 1007.9
21 14.09 С 1 8000 м зарница 9/3 500 м
[Cb cap Ac lent Ci sp]
+25.7 +23.7 89 +35 +35 очень
душно
1009.1 1007.2
00 15.09 В 2 9000 м мгла 9/1 840 м
[Sc diur, vesp Ac lent Ci sp]
+25.9 +23.8 88 +35 +36 очень
душно
1009.8 1007.9 +25.2
03 15.09 Ю 2 10 км мгла 9/5 500 м
[Cb cap Ac lent Ci sp]
+29.8 +24.0 71 +41 +46 опасность
перегрева
1010.9 1009.0
06 15.09 С 3 8000 м гроза, ливневой дождь 9/6 500 м
[Cb cap Ac lent Ci sp]
+26.2 +23.8 87 +36 +40 очень
душно
1008.4 1006.5 0.0
09 15.09 Ю 2 10 км в посл. час гроза 9/5 500 м
[Cb cap Ac lent Cs]
+26.8 +25.0 90 +39 +41 очень
душно
1006.7 1004.8
12 15.09 ЮВ 1 9000 м зарница {гроза} 9/3 500 м
[Cb cap Ac lent Ci sp]
+27.0 +24.9 88 +39 +39 очень
душно
1007.5 1005.6 +30.5 0.2
15 15.09 С 1 8000 м зарница 9/1 500 м
[Cb cap Ac lent Ci sp]
+26.4 +24.9 91 +38 +38 очень
душно
1009.4 1007.5
18 15.09 СВ 1 6000 м зарница 9/3 500 м
[Cb cap Ac lent Ci sp]
+25.8 +24.5 93 +36 +36 очень
душно
1008.1 1006.2
21 15.09 З 3 9000 м зарница 9/3 500 м
[Cb cap Ac lent Ci sp]
+25.1 +23.4 90 +34 +34 очень
душно
1007.7 1005.8
00 16.09 штиль 0 9000 м мгла 9/3 900 м
[Sc Ac lent Ci sp]
+25.1 +23.9 93 +34 +35 очень
душно
1009.1 1007.2 +24.4 0.2
03 16.09 СВ 1 9000 м в посл. час гроза 9/3 500 м
[Cb cap Ac lent Ci sp]
+29.0 +24.5 77 +41 +48 опасность
перегрева
1010.1 1008.2
06 16.09 Ю 3 9000 м слабый ливневой дождь, в посл. час гроза 9/5 300 м
[Cb cap Ac lent Ci sp]
+26.2 +24.8 92 +37 +43 очень
душно
1008.3 1006.4 18
09 16.09 ЮЗ 1 7000 м мгла {дождь} 9/3 500 м
[Cb cap Ac lent Ci sp]
+26.4 +24.0 87 +37 +40 очень
душно
1006.3 1004.4
12 16.09 В 2 8000 м мгла {дождь} 9/1 900 м
[Sc Ac lent Ci sp]
+26.2 +24.4 90 +37 +37 очень
душно
1007.4 1005.5 +29.6 0.0
15 16.09 В 2 8000 м мгла 9/3 900 м
[Sc Ac lent Ci sp]
+25.8 +24.0 90 +36 +36 очень
душно
1009.7 1007.8
18 16.09 СВ 1 7000 м мгла 9/3 900 м
[Sc Ac lent Ci sp]
+25.0 +23.7 93 +34 +34 очень
душно
1008.3 1006.4
21 16.09 С 1 5000 м мгла 9/1 900 м
[Sc Ac lent Ci sp]
+24.9 +23.6 92 +34 +34 очень
душно
1007.3 1005.4
00 17.09 штиль 0 4000 м слабый дождь 9/6 300 м
[Cb cap Ac lent Cs]
+25.1 +23.6 91 +34 +34 очень
душно
1009.1 1007.2 +24.4 18
03 17.09 ЮВ 1 9000 м мгла {дождь} 9/3 500 м
[Cb cap Ac lent Ci sp]
+28.2 +24.8 82 +40 +48 очень
душно
1009.5 1007.6
06 17.09 ЮВ 5 10 км в посл. час ливневой дождь 9/3 500 м
[Cb cap Ac lent Ci sp]
+26.2 +21.7 76 +34 +38 очень
душно
1008.2 1006.3 0.8
09 17.09 Ю 2 10 км мгла 9/1 540 м
[Cu hum Ac lent Ci sp]
+28.8 +23.2 72 +39 +42 очень
душно
1006.8 1004.9
12 17.09 ЮВ 2 10 км мгла 9/1 900 м
[Sc diur, vesp Ac lent Ci sp]
+27.1 +23.7 82 +37 +37 очень
душно
1007.8 1005.9 +29.0
15 17.09 штиль 0 7000 м мгла 9/1 900 м
[Sc Ac lent Ci sp]
+26.0 +24.3 90 +36 +36 очень
душно
1010.1 1008.2
18 17.09 С 1 6000 м гроза без осадков 9/4 500 м
[Cb cap Ac lent Ci sp]
+25.7 +24.1 91 +36 +36 очень
душно
1010.0 1008.1
21 17.09 ЮВ 3 5000 м гроза, ливневой дождь 10/4 240 м
[Cb cap Ac lent Cs]
+23.4 +22.7 96 +33 +33 очень
душно
1010.2 1008.3
00 18.09 С 2 3000 м дождь {гроза} 10/4 240 м
[Cb cap Ac lent Cs]
+23.5 +23.0 97 +31 +31 очень
душно
1012.1 1010.2 +22.9 33
03 18.09 СВ 4 8000 м мгла {дождь} 9/3 500 м
[Cb cap Ac lent Cs]
+24.7 +23.2 91 +33 +38 очень
душно
1012.8 1010.9
06 18.09 С 3 10 км мгла {дождь} 9/1 900 м
[Sc Ac lent Cs]
+27.6 +23.6 79 +38 +47 очень
душно
1009.5 1007.6 3
09 18.09 СЗ 1 10 км мгла 9/1 540 м
[Cu hum Ac As Ci sp]
+28.4 +23.5 75 +39 +43 очень
душно
1008.1 1006.2
12 18.09 СЗ 1 10 км мгла 9/1 900 м
[Sc Ac lent Ci sp]
+27.2 +23.9 82 +37 +37 очень
душно
1009.7 1007.8 +28.5
15 18.09 ЮВ 1 10 км мгла 9/3 900 м
[Sc diur, vesp Ac lent Ci sp]
+25.6 +22.9 85 +34 +34 очень
душно
1010.8 1008.9
18 18.09 ЮВ 2 10 км мгла 9/3 900 м
[Sc diur, vesp Ac lent Ci sp]
+25.2 +22.6 86 +33 +33 очень
душно
1009.0 1007.1
21 18.09 штиль 0 9000 м мгла 9/1 900 м
[Sc Ac lent Ci sp]
+24.2 +23.1 94 +32 +32 очень
душно
1008.4 1006.5
00 19.09 СЗ 2 9000 м мгла 9/1 500 м
[Cb cap Ac lent Ci sp]
+25.3 +23.4 89 +34 +35 очень
душно
1010.2 1008.3 +23.4 3
03 19.09 СВ 1 10 км мгла 9/3 500 м
[Cb cap Ac lent Ci sp]
+31.0 +23.6 65 +42 +49 опасность
перегрева
1011.4 1009.5
06 19.09 ЮЗ 3 10 км мгла 9/3 540 м
[Cu hum Ac lent Ci sp]
+31.1 +24.9 70 +45 +52 опасность
перегрева
1009.1 1007.2
09 19.09 ЮВ 5 10 км мгла 9/4 500 м
[Cb cap Ac lent Ci sp]
+28.0 +23.1 75 +38 +39 очень
душно
1007.4 1005.5
12 19.09 СВ 3 10 км мгла {дождь} 9/3 900 м
[Sc Ac lent Ci sp]
+25.3 +23.6 90 +34 +34 очень
душно
1009.1 1007.2 +31.3 0.6
15 19.09 В 5 7000 м слабый дождь 9/5 180 м
[Sc Ac As Cs]
+24.5 +23.0 91 +32 +32 очень
душно
1011.6 1009.7
18 19.09 В 2 9000 м мгла {дождь} 9/3 900 м
[Sc Ac As Cs]
+24.3 +23.1 93 +32 +32 очень
душно
1009.7 1007.8 4

 

Местоположение метеостанции Kuala Lumpur Int Airport (Малайзия): широта 2.72 долгота 101.70 высота над уровнем моря 17 м.

В архиве по умолчанию представлена погода в Kuala Lumpur Int Airport за последнюю неделю. Архивные данные за месяц целиком и за предыдущие месяцы, начиная с января 2011 года, Вы можете получить, выбрав интересующий диапазон дат из раскрывающегося списка и нажав кнопку "Ввод!".


*Определитесь, кто Вы:
робот инопланетянин человек

Внимание! Время в таблицах - всемирное. Для получения местного времени необходимо прибавить поправку, которая в Kuala Lumpur Int Airport равна 7 ч.

Смотрите также архив погоды в соседних городах и на ближайших метеорологических станциях:

Погода в Kuala Lumpur (Малайзия) (48 км)
Погода в Malacca (Малайзия) (79 км)
Погода в Cameron Highlands (Малайзия) (198 км)
Погода в Sitiawan (Малайзия) (200 км)
Погода в Kuantan (Малайзия) (205 км)
Погода в Ipoh (Малайзия) (216 км)
Погода в Johore Bharu / Senai (Малайзия) (250 км)
Погода в Pekanbaru (Индонезия) (252 км)
Погода в Singapore (Сингапур) (295 км)
Погода в Batam Hang Nadim Airport (Индонезия) (322 км)

Пояснения к столбцам:

Ветер - указаны скорость ветра в м/с - средняя за 10 мин, порывы в срок и между сроками (в фигурных скобках) и направление, откуда дует ветер: С - северный, СВ - северо-восточный, В - восточный, ЮВ - юго-восточный, Ю - южный, ЮЗ - юго-западный, З - западный, СЗ - северо-западный.
Видимость - горизонтальная дальность видимости в метрах или километрах. При видимости от 1 до 10 км при отсутствии осадков обычно наблюдается дымка, при ухудшении видимости до 1 км и менее - туман. В сухую погоду видимость может ухудшаться дымом, пылью или мглою.
Явления - указаны атмосферные явления, наблюдавшиеся в срок или в последний час перед сроком; фигурными скобками обозначены явления, наблюдавшиеся между сроками (за 1-3 часа до срока); квадратными скобками обозначены град или гололедные отложения с указанием их диаметра в мм.
Облачность - указаны через наклонную черту общая и нижняя облачность в баллах и высота нижней границы облаков в метрах; квадратными скобками обозначены формы облаков: Ci - перистые, Cs - перисто-слоистые, Cc - перисто-кучевые, Ac - высококучевые, As - высокослоистые, Sc - слоисто-кучевые, Ns - слоисто-дождевые, Cu - кучевые, Cb - кучево-дождевые. Подробнее классификацию облаков см. в Атласе облаков (PDF).
T - Температура воздуха - температура, измеренная на высоте 2 м над землей.
Td - Температура точки росы - температура, при понижении до которой содержащийся в воздухе водяной пар достигнет насыщения.
f - Относительная влажность воздуха - влажноcть воздуха, измеренная на высоте 2 м над землей.
Te - Эффективная температура - температура, которую ощущает одетый по сезону человек в тени. Характеристика душности погоды. При расчете учитывается влияние влажности воздуха и скорости ветра на теплоощущения человека.
Tes - Эффективная температура на солнце - температура, которую ощущает человек, с поправкой на солнечный нагрев. Характеристика знойности погоды. Зависит от высоты солнца над горизонтом, облачности и скорости ветра. Ночью, в пасмурную погоду, а также при ветре 12 м/с и более поправка равна нулю.
P - Атмосферное давление - приведенное к уровню моря атмосферное давление.
Po - Атмосферное давление - измеренное на уровне метеостанции атмосферное давление.
Tmin - Минимальная температура - минимум температуры воздуха на высоте 2 м над землей.
Tmax - Максимальная температура - максимум температуры воздуха на высоте 2 м над землей.
R - Количество осадков - Количество выпавших осадков за период времени, мм. При наведении курсора мыши на число - период времени, за который выпало указанное количество осадков.
R24 - Количество осадков - Количество выпавших осадков за 24 часа, мм.
S - Снежный покров - Высота снежного покрова, см. При наведении курсора мыши на число - состояние снежного покрова и степень покрытия местности в баллах.